Simultaneous Nadir Overpasses (SNOs) Predictions

Prediction of SNOs between METOP-A and METOP-B Satellite Orbit:

Table of predicted SNOs for the next 14.0 days since TLE Epoch: 5/6/2023
Index Date (METOP-A) Time (METOP-A) Lat,Lon (METOP-A) SZA (METOP-A ) Date (METOP-B) Time (METOP-B) Lat,Lon (METOP-B) SZA (METOP-B ) Distance(km) Time Diff (sec)
1 05/06/2023 03:38:14 81.36, 177.77 68.49 05/06/2023 03:38:13 81.36, 177.77 68.49 0.07 1
2 05/06/2023 04:28:54 -81.36, -14.68 111.50 05/06/2023 04:28:53 -81.36, -14.67 111.50 0.07 1
3 05/06/2023 05:19:35 81.36, 152.64 68.49 05/06/2023 05:19:34 81.36, 152.64 68.49 0.07 1
4 05/06/2023 06:10:16 -81.36, -40.20 111.54 05/06/2023 06:10:15 -81.36, -40.20 111.54 0.07 1
5 05/06/2023 07:00:57 81.36, 127.11 68.45 05/06/2023 07:00:56 81.36, 127.12 68.45 0.07 1
6 05/06/2023 07:51:37 -81.36, -65.33 111.54 05/06/2023 07:51:36 -81.36, -65.33 111.54 0.07 1
7 05/06/2023 08:42:18 81.36, 101.98 68.46 05/06/2023 08:42:17 81.36, 101.99 68.46 0.07 1
8 05/06/2023 09:32:59 -81.36, -90.86 111.58 05/06/2023 09:32:58 -81.36, -90.86 111.58 0.07 1
9 05/06/2023 10:23:40 81.36, 76.46 68.42 05/06/2023 10:23:39 81.36, 76.46 68.42 0.07 1
10 05/06/2023 11:14:20 -81.36,-115.99 111.57 05/06/2023 11:14:19 -81.36,-115.99 111.57 0.07 1
11 05/06/2023 12:05:01 81.36, 51.33 68.42 05/06/2023 12:05:00 81.36, 51.33 68.42 0.07 1
12 05/06/2023 12:55:42 -81.36,-141.52 111.61 05/06/2023 12:55:41 -81.36,-141.51 111.61 0.07 1
13 05/06/2023 13:46:23 81.36, 25.80 68.38 05/06/2023 13:46:22 81.36, 25.80 68.38 0.07 1
14 05/06/2023 14:37:03 -81.36,-166.65 111.61 05/06/2023 14:37:02 -81.36,-166.64 111.61 0.07 1
15 05/06/2023 15:27:44 81.36, 0.67 68.39 05/06/2023 15:27:43 81.36, 0.67 68.39 0.07 1
16 05/06/2023 16:18:25 -81.36, 167.83 111.65 05/06/2023 16:18:24 -81.36, 167.83 111.65 0.07 1
17 05/06/2023 17:09:06 81.36, -24.86 68.34 05/06/2023 17:09:05 81.36, -24.85 68.34 0.07 1
18 05/06/2023 17:59:46 -81.36, 142.70 111.64 05/06/2023 17:59:45 -81.36, 142.70 111.64 0.07 1
19 05/06/2023 18:50:27 81.36, -49.99 68.35 05/06/2023 18:50:26 81.36, -49.99 68.35 0.07 1
20 05/06/2023 19:41:08 -81.36, 117.17 111.69 05/06/2023 19:41:07 -81.36, 117.18 111.69 0.07 1
21 05/06/2023 20:31:49 81.36, -75.52 68.31 05/06/2023 20:31:48 81.36, -75.51 68.31 0.07 1
22 05/06/2023 21:22:29 -81.36, 92.04 111.68 05/06/2023 21:22:28 -81.36, 92.05 111.68 0.07 1
23 05/06/2023 22:13:10 81.36,-100.65 68.31 05/06/2023 22:13:09 81.36,-100.64 68.31 0.07 1
24 05/06/2023 23:03:51 -81.36, 66.52 111.72 05/06/2023 23:03:50 -81.36, 66.52 111.72 0.07 1
25 05/06/2023 23:54:32 81.36,-126.18 68.27 05/06/2023 23:54:31 81.36,-126.17 68.27 0.07 1
26 05/07/2023 00:45:13 -81.36, 40.99 111.76 05/07/2023 00:45:12 -81.36, 40.99 111.76 0.07 1
27 05/07/2023 01:35:53 81.36,-151.31 68.28 05/07/2023 01:35:52 81.36,-151.30 68.28 0.07 1
28 05/07/2023 02:26:34 -81.36, 15.86 111.76 05/07/2023 02:26:33 -81.36, 15.86 111.76 0.07 1
29 05/07/2023 03:17:15 81.36,-176.83 68.24 05/07/2023 03:17:14 81.36,-176.83 68.24 0.07 1
30 05/07/2023 04:07:56 -81.36, -9.67 111.80 05/07/2023 04:07:55 -81.36, -9.66 111.80 0.07 1
31 05/07/2023 04:58:37 81.36, 157.64 68.19 05/07/2023 04:58:36 81.36, 157.64 68.19 0.07 1
32 05/07/2023 05:49:17 -81.36, -34.80 111.79 05/07/2023 05:49:16 -81.36, -34.79 111.79 0.07 1
33 05/07/2023 06:39:58 81.36, 132.51 68.20 05/07/2023 06:39:57 81.36, 132.51 68.20 0.07 1
34 05/07/2023 07:30:39 -81.36, -60.33 111.84 05/07/2023 07:30:38 -81.36, -60.32 111.84 0.07 1
35 05/07/2023 08:21:20 81.36, 106.98 68.16 05/07/2023 08:21:19 81.36, 106.98 68.16 0.07 1
36 05/07/2023 09:12:00 -81.36, -85.46 111.83 05/07/2023 09:11:59 -81.36, -85.45 111.83 0.07 1
37 05/07/2023 10:02:41 81.36, 81.85 68.16 05/07/2023 10:02:40 81.36, 81.85 68.16 0.07 1
38 05/07/2023 10:53:22 -81.36,-110.98 111.87 05/07/2023 10:53:21 -81.36,-110.98 111.87 0.07 1
39 05/07/2023 11:44:03 81.36, 56.32 68.12 05/07/2023 11:44:02 81.36, 56.32 68.12 0.07 1
40 05/07/2023 12:34:43 -81.36,-136.11 111.86 05/07/2023 12:34:42 -81.36,-136.11 111.86 0.07 1
41 05/07/2023 13:25:24 81.36, 31.19 68.13 05/07/2023 13:25:23 81.36, 31.19 68.13 0.07 1
42 05/07/2023 14:16:05 -81.36,-161.64 111.91 05/07/2023 14:16:04 -81.36,-161.64 111.91 0.07 1
43 05/07/2023 15:06:46 81.36, 5.66 68.09 05/07/2023 15:06:45 81.36, 5.67 68.09 0.07 1
44 05/07/2023 15:57:26 -81.36, 173.23 111.90 05/07/2023 15:57:25 -81.36, 173.23 111.90 0.07 1
45 05/07/2023 16:48:07 81.36, -19.47 68.09 05/07/2023 16:48:06 81.36, -19.47 68.09 0.07 1
46 05/07/2023 17:38:47 -81.36, 147.70 111.94 05/07/2023 17:38:46 -81.36, 147.71 111.94 0.07 1
47 05/07/2023 18:29:28 81.36, -45.00 68.05 05/07/2023 18:29:27 81.36, -44.99 68.05 0.07 1
48 05/07/2023 19:20:08 -81.36, 122.57 111.94 05/07/2023 19:20:07 -81.36, 122.57 111.94 0.07 1
49 05/07/2023 20:10:49 81.36, -70.13 68.06 05/07/2023 20:10:48 81.36, -70.13 68.06 0.07 1
50 05/07/2023 21:01:30 -81.36, 97.04 111.98 05/07/2023 21:01:29 -81.36, 97.05 111.98 0.07 1
51 05/07/2023 21:52:11 81.36, -95.66 68.01 05/07/2023 21:52:10 81.36, -95.65 68.01 0.07 1
52 05/07/2023 22:42:51 -81.36, 71.91 111.97 05/07/2023 22:42:50 -81.36, 71.92 111.97 0.07 1
53 05/07/2023 23:33:32 81.36,-120.79 68.02 05/07/2023 23:33:31 81.36,-120.79 68.02 0.07 1
54 05/08/2023 00:24:13 -81.36, 46.38 112.01 05/08/2023 00:24:12 -81.36, 46.39 112.01 0.07 1
55 05/08/2023 01:14:54 81.36,-146.32 67.98 05/08/2023 01:14:53 81.36,-146.31 67.98 0.07 1
56 05/08/2023 02:05:34 -81.36, 21.25 112.01 05/08/2023 02:05:33 -81.36, 21.26 112.01 0.07 1
57 05/08/2023 02:56:15 81.36,-171.45 67.99 05/08/2023 02:56:14 81.36,-171.45 67.99 0.07 1
58 05/08/2023 03:46:56 -81.36, -4.27 112.05 05/08/2023 03:46:55 -81.36, -4.27 112.05 0.07 1
59 05/08/2023 04:37:37 81.36, 163.02 67.94 05/08/2023 04:37:36 81.36, 163.03 67.94 0.07 1
60 05/08/2023 05:28:18 -81.36, -29.80 112.09 05/08/2023 05:28:17 -81.36, -29.80 112.09 0.07 1
61 05/08/2023 06:18:58 81.36, 137.89 67.95 05/08/2023 06:18:57 81.36, 137.89 67.95 0.07 1
62 05/08/2023 07:09:39 -81.36, -54.93 112.08 05/08/2023 07:09:38 -81.36, -54.93 112.08 0.07 1
63 05/08/2023 08:00:20 81.36, 112.36 67.91 05/08/2023 08:00:19 81.36, 112.36 67.91 0.07 1
64 05/08/2023 08:51:01 -81.36, -80.46 112.13 05/08/2023 08:51:00 -81.36, -80.46 112.13 0.07 1
65 05/08/2023 09:41:41 81.36, 87.23 67.91 05/08/2023 09:41:40 81.36, 87.23 67.91 0.07 1
66 05/08/2023 10:32:22 -81.36,-105.59 112.12 05/08/2023 10:32:21 -81.36,-105.59 112.12 0.07 1
67 05/08/2023 11:23:03 81.36, 61.70 67.87 05/08/2023 11:23:02 81.36, 61.70 67.87 0.07 1
68 05/08/2023 12:13:44 -81.36,-131.12 112.16 05/08/2023 12:13:43 -81.36,-131.12 112.16 0.07 1
69 05/08/2023 13:04:25 81.36, 36.17 67.83 05/08/2023 13:04:24 81.36, 36.17 67.83 0.07 1
70 05/08/2023 13:55:05 -81.36,-156.25 112.15 05/08/2023 13:55:04 -81.36,-156.25 112.15 0.07 1
71 05/08/2023 14:45:46 81.36, 11.04 67.84 05/08/2023 14:45:45 81.36, 11.04 67.84 0.07 1
72 05/08/2023 15:36:27 -81.36, 178.22 112.20 05/08/2023 15:36:26 -81.36, 178.22 112.20 0.07 1
73 05/08/2023 16:27:08 81.36, -14.49 67.79 05/08/2023 16:27:07 81.36, -14.49 67.79 0.07 1
74 05/08/2023 17:17:48 -81.36, 153.09 112.19 05/08/2023 17:17:47 -81.36, 153.09 112.19 0.07 1
75 05/08/2023 18:08:29 81.36, -39.62 67.80 05/08/2023 18:08:28 81.36, -39.62 67.80 0.07 1
76 05/08/2023 18:59:10 -81.36, 127.56 112.23 05/08/2023 18:59:09 -81.36, 127.56 112.23 0.07 1
77 05/08/2023 19:49:51 81.36, -65.15 67.76 05/08/2023 19:49:50 81.36, -65.15 67.76 0.07 1
78 05/08/2023 20:40:31 -81.36, 102.43 112.22 05/08/2023 20:40:30 -81.36, 102.43 112.22 0.07 1
79 05/08/2023 21:31:12 81.36, -90.28 67.77 05/08/2023 21:31:11 81.36, -90.28 67.77 0.07 1
80 05/08/2023 22:21:53 -81.36, 76.90 112.27 05/08/2023 22:21:52 -81.36, 76.90 112.27 0.07 1
81 05/08/2023 23:12:34 81.36,-115.81 67.72 05/08/2023 23:12:33 81.36,-115.81 67.72 0.07 1
82 05/09/2023 00:03:14 -81.36, 51.77 112.26 05/09/2023 00:03:13 -81.36, 51.77 112.26 0.07 1
83 05/09/2023 00:53:55 81.36,-140.95 67.73 05/09/2023 00:53:54 81.36,-140.94 67.73 0.07 1
84 05/09/2023 01:44:36 -81.36, 26.24 112.30 05/09/2023 01:44:35 -81.36, 26.24 112.30 0.07 1
85 05/09/2023 02:35:17 81.36,-166.48 67.69 05/09/2023 02:35:16 81.36,-166.47 67.69 0.07 1
86 05/09/2023 03:25:57 -81.36, 1.11 112.29 05/09/2023 03:25:56 -81.36, 1.11 112.29 0.07 1
87 05/09/2023 04:16:38 81.36, 168.39 67.70 05/09/2023 04:16:37 81.36, 168.40 67.70 0.07 1
88 05/09/2023 05:07:19 -81.36, -24.42 112.34 05/09/2023 05:07:18 -81.36, -24.42 112.34 0.07 1
89 05/09/2023 05:58:00 81.36, 142.86 67.65 05/09/2023 05:57:59 81.36, 142.87 67.65 0.07 1
90 05/09/2023 06:48:40 -81.36, -49.55 112.33 05/09/2023 06:48:39 -81.36, -49.55 112.33 0.07 1
91 05/09/2023 07:39:21 81.36, 117.73 67.66 05/09/2023 07:39:20 81.36, 117.73 67.66 0.07 1
92 05/09/2023 08:30:02 -81.36, -75.08 112.37 05/09/2023 08:30:01 -81.36, -75.08 112.37 0.07 1
93 05/09/2023 09:20:43 81.36, 92.20 67.62 05/09/2023 09:20:42 81.36, 92.20 67.62 0.07 1
94 05/09/2023 10:11:23 -81.36,-100.22 112.36 05/09/2023 10:11:22 -81.36,-100.21 112.36 0.07 1
95 05/09/2023 11:02:04 81.36, 67.07 67.63 05/09/2023 11:02:03 81.36, 67.07 67.63 0.07 1
96 05/09/2023 11:52:45 -81.36,-125.74 112.41 05/09/2023 11:52:44 -81.36,-125.74 112.41 0.07 1
97 05/09/2023 12:43:26 81.36, 41.54 67.58 05/09/2023 12:43:25 81.36, 41.54 67.58 0.07 1
98 05/09/2023 13:34:06 -81.36,-150.88 112.40 05/09/2023 13:34:05 -81.36,-150.87 112.40 0.07 1
99 05/09/2023 14:24:47 81.36, 16.40 67.59 05/09/2023 14:24:46 81.36, 16.41 67.59 0.07 1
100 05/09/2023 15:15:28 -81.36,-176.40 112.44 05/09/2023 15:15:27 -81.36,-176.40 112.44 0.07 1
101 05/09/2023 16:06:09 81.36, -9.13 67.55 05/09/2023 16:06:08 81.36, -9.12 67.55 0.07 1
102 05/09/2023 16:56:50 -81.36, 158.07 112.48 05/09/2023 16:56:49 -81.36, 158.07 112.48 0.07 1
103 05/09/2023 17:47:30 81.36, -34.26 67.56 05/09/2023 17:47:29 81.36, -34.26 67.56 0.07 1
104 05/09/2023 18:38:11 -81.36, 132.93 112.48 05/09/2023 18:38:10 -81.36, 132.94 112.48 0.07 1
105 05/09/2023 19:28:52 81.36, -59.79 67.51 05/09/2023 19:28:51 81.36, -59.79 67.51 0.07 1
106 05/09/2023 20:19:33 -81.36, 107.40 112.52 05/09/2023 20:19:32 -81.36, 107.41 112.52 0.07 1
107 05/09/2023 21:10:12 81.36, -84.92 67.52 05/09/2023 21:10:11 81.36, -84.92 67.52 0.07 1
108 05/09/2023 22:00:53 -81.36, 82.27 112.51 05/09/2023 22:00:52 -81.36, 82.28 112.51 0.07 1
109 05/09/2023 22:51:34 81.36,-110.45 67.48 05/09/2023 22:51:33 81.36,-110.45 67.48 0.07 1
110 05/09/2023 23:42:15 -81.36, 56.74 112.55 05/09/2023 23:42:14 -81.36, 56.75 112.55 0.07 1
111 05/10/2023 00:32:55 81.36,-135.59 67.49 05/10/2023 00:32:54 81.36,-135.58 67.49 0.07 1
112 05/10/2023 01:23:36 -81.36, 31.61 112.54 05/10/2023 01:23:35 -81.36, 31.61 112.54 0.07 1
113 05/10/2023 02:14:17 81.36,-161.12 67.44 05/10/2023 02:14:16 81.36,-161.11 67.44 0.07 1
114 05/10/2023 03:04:58 -81.36, 6.08 112.59 05/10/2023 03:04:57 -81.36, 6.08 112.59 0.07 1
115 05/10/2023 03:55:38 81.36, 173.75 67.45 05/10/2023 03:55:37 81.36, 173.75 67.45 0.07 1
116 05/10/2023 04:46:19 -81.36, -19.05 112.58 05/10/2023 04:46:18 -81.36, -19.05 112.58 0.07 1
117 05/10/2023 05:37:00 81.36, 148.22 67.41 05/10/2023 05:36:59 81.36, 148.22 67.41 0.07 1
118 05/10/2023 06:27:41 -81.36, -44.58 112.62 05/10/2023 06:27:40 -81.36, -44.58 112.62 0.07 1
119 05/10/2023 07:18:22 81.36, 122.69 67.37 05/10/2023 07:18:21 81.36, 122.69 67.37 0.07 1
120 05/10/2023 08:09:02 -81.36, -69.72 112.61 05/10/2023 08:09:01 -81.36, -69.71 112.61 0.07 1
121 05/10/2023 08:59:43 81.36, 97.55 67.37 05/10/2023 08:59:42 81.36, 97.56 67.37 0.07 1
122 05/10/2023 09:50:24 -81.36, -95.25 112.66 05/10/2023 09:50:23 -81.36, -95.24 112.66 0.07 1
123 05/10/2023 10:41:05 81.36, 72.02 67.33 05/10/2023 10:41:04 81.36, 72.03 67.33 0.07 1
124 05/10/2023 11:31:45 -81.36,-120.38 112.65 05/10/2023 11:31:44 -81.36,-120.37 112.65 0.07 1
125 05/10/2023 12:22:26 81.36, 46.89 67.34 05/10/2023 12:22:25 81.36, 46.89 67.34 0.07 1
126 05/10/2023 13:13:07 -81.36,-145.91 112.69 05/10/2023 13:13:06 -81.36,-145.90 112.69 0.07 1
127 05/10/2023 14:03:48 81.36, 21.36 67.30 05/10/2023 14:03:47 81.36, 21.36 67.30 0.07 1
128 05/10/2023 14:54:28 -81.36,-171.04 112.68 05/10/2023 14:54:27 -81.36,-171.04 112.68 0.07 1
129 05/10/2023 15:45:09 81.36, -3.78 67.31 05/10/2023 15:45:08 81.36, -3.77 67.31 0.07 1
130 05/10/2023 16:35:50 -81.36, 163.43 112.72 05/10/2023 16:35:49 -81.36, 163.43 112.72 0.07 1
131 05/10/2023 17:26:31 81.36, -29.31 67.26 05/10/2023 17:26:30 81.36, -29.30 67.26 0.07 1
132 05/10/2023 18:17:11 -81.36, 138.29 112.72 05/10/2023 18:17:10 -81.36, 138.30 112.72 0.07 1
133 05/10/2023 19:07:52 81.36, -54.44 67.27 05/10/2023 19:07:51 81.36, -54.44 67.27 0.07 1
134 05/10/2023 19:58:33 -81.36, 112.76 112.76 05/10/2023 19:58:32 -81.36, 112.77 112.76 0.07 1
135 05/10/2023 20:49:14 81.36, -79.97 67.23 05/10/2023 20:49:13 81.36, -79.97 67.23 0.07 1
136 05/10/2023 21:39:54 -81.36, 87.63 112.75 05/10/2023 21:39:53 -81.36, 87.63 112.75 0.07 1
137 05/10/2023 22:30:35 81.36,-105.11 67.24 05/10/2023 22:30:34 81.36,-105.10 67.24 0.07 1
138 05/10/2023 23:21:16 -81.36, 62.10 112.79 05/10/2023 23:21:15 -81.36, 62.11 112.79 0.07 1
139 05/11/2023 00:11:57 81.36,-130.64 67.20 05/11/2023 00:11:56 81.36,-130.63 67.20 0.07 1
140 05/11/2023 01:02:37 -81.36, 36.97 112.78 05/11/2023 01:02:36 -81.36, 36.97 112.78 0.07 1
141 05/11/2023 01:53:18 81.36,-155.77 67.20 05/11/2023 01:53:17 81.36,-155.77 67.20 0.07 1
142 05/11/2023 02:43:59 -81.36, 11.44 112.83 05/11/2023 02:43:58 -81.36, 11.44 112.83 0.07 1
143 05/11/2023 03:34:40 81.36, 178.70 67.16 05/11/2023 03:34:39 81.36, 178.70 67.16 0.07 1
144 05/11/2023 04:25:20 -81.36, -13.70 112.82 05/11/2023 04:25:19 -81.36, -13.69 112.82 0.07 1
145 05/11/2023 05:16:01 81.36, 153.56 67.17 05/11/2023 05:16:00 81.36, 153.57 67.17 0.07 1
146 05/11/2023 06:06:42 -81.36, -39.23 112.86 05/11/2023 06:06:41 -81.36, -39.22 112.86 0.07 1
147 05/11/2023 06:57:23 81.36, 128.03 67.13 05/11/2023 06:57:22 81.36, 128.04 67.13 0.07 1
148 05/11/2023 07:48:03 -81.36, -64.36 112.85 05/11/2023 07:48:02 -81.36, -64.36 112.85 0.07 1
149 05/11/2023 08:38:44 81.36, 102.90 67.13 05/11/2023 08:38:43 81.36, 102.90 67.13 0.07 1
150 05/11/2023 09:29:25 -81.36, -89.89 112.89 05/11/2023 09:29:24 -81.36, -89.89 112.89 0.07 1
151 05/11/2023 10:20:06 81.36, 77.36 67.09 05/11/2023 10:20:05 81.36, 77.37 67.09 0.07 1
152 05/11/2023 11:10:47 -81.36,-115.42 112.94 05/11/2023 11:10:46 -81.36,-115.42 112.94 0.07 1
153 05/11/2023 12:01:27 81.36, 52.23 67.10 05/11/2023 12:01:26 81.36, 52.23 67.10 0.07 1
154 05/11/2023 12:52:08 -81.36,-140.56 112.93 05/11/2023 12:52:07 -81.36,-140.55 112.93 0.07 1
155 05/11/2023 13:42:49 81.36, 26.70 67.06 05/11/2023 13:42:48 81.36, 26.70 67.06 0.07 1
156 05/11/2023 14:33:30 -81.36,-166.09 112.97 05/11/2023 14:33:29 -81.36,-166.08 112.97 0.07 1
157 05/11/2023 15:24:10 81.36, 1.56 67.07 05/11/2023 15:24:09 81.36, 1.57 67.07 0.07 1
158 05/11/2023 16:14:51 -81.36, 168.78 112.96 05/11/2023 16:14:50 -81.36, 168.78 112.96 0.07 1
159 05/11/2023 17:05:32 81.36, -23.97 67.02 05/11/2023 17:05:31 81.36, -23.96 67.02 0.07 1
160 05/11/2023 17:56:13 -81.36, 143.25 113.00 05/11/2023 17:56:12 -81.36, 143.25 113.00 0.07 1
161 05/11/2023 18:46:53 81.36, -49.10 67.03 05/11/2023 18:46:52 81.36, -49.10 67.03 0.07 1
162 05/11/2023 19:37:34 -81.36, 118.11 113.00 05/11/2023 19:37:33 -81.36, 118.12 113.00 0.07 1
163 05/11/2023 20:28:15 81.36, -74.64 66.99 05/11/2023 20:28:14 81.36, -74.63 66.99 0.07 1
164 05/11/2023 21:18:56 -81.36, 92.58 113.04 05/11/2023 21:18:55 -81.36, 92.59 113.04 0.07 1
165 05/11/2023 22:09:36 81.36, -99.77 67.00 05/11/2023 22:09:35 81.36, -99.77 67.00 0.07 1
166 05/11/2023 23:00:17 -81.36, 67.45 113.03 05/11/2023 23:00:16 -81.36, 67.45 113.03 0.07 1
167 05/11/2023 23:50:58 81.36,-125.30 66.96 05/11/2023 23:50:57 81.36,-125.30 66.96 0.07 1
168 05/12/2023 00:41:38 -81.36, 41.92 113.07 05/12/2023 00:41:37 -81.36, 41.92 113.07 0.07 1
169 05/12/2023 01:32:18 81.36,-150.44 66.96 05/12/2023 01:32:17 81.36,-150.43 66.96 0.07 1
170 05/12/2023 02:22:59 -81.36, 16.78 113.06 05/12/2023 02:22:58 -81.36, 16.79 113.06 0.07 1
171 05/12/2023 03:13:40 81.36,-175.97 66.92 05/12/2023 03:13:39 81.36,-175.97 66.92 0.07 1
172 05/12/2023 04:04:21 -81.36, -8.75 113.11 05/12/2023 04:04:20 -81.36, -8.75 113.11 0.07 1
173 05/12/2023 04:55:01 81.36, 158.89 66.93 05/12/2023 04:55:00 81.36, 158.90 66.93 0.07 1
174 05/12/2023 05:45:42 -81.36, -33.89 113.10 05/12/2023 05:45:41 -81.36, -33.88 113.10 0.07 1
175 05/12/2023 06:36:23 81.36, 133.36 66.89 05/12/2023 06:36:22 81.36, 133.37 66.89 0.07 1
176 05/12/2023 07:27:04 -81.36, -59.42 113.14 05/12/2023 07:27:03 -81.36, -59.41 113.14 0.07 1
177 05/12/2023 08:17:45 81.36, 107.83 66.85 05/12/2023 08:17:44 81.36, 107.83 66.85 0.07 1
178 05/12/2023 09:08:25 -81.36, -84.55 113.13 05/12/2023 09:08:24 -81.36, -84.55 113.13 0.07 1
179 05/12/2023 09:59:06 81.36, 82.69 66.85 05/12/2023 09:59:05 81.36, 82.70 66.85 0.07 1
180 05/12/2023 10:49:47 -81.36,-110.08 113.17 05/12/2023 10:49:46 -81.36,-110.08 113.17 0.07 1
181 05/12/2023 11:40:28 81.36, 57.16 66.81 05/12/2023 11:40:27 81.36, 57.17 66.81 0.07 1
182 05/12/2023 12:31:08 -81.36,-135.22 113.16 05/12/2023 12:31:07 -81.36,-135.21 113.16 0.07 1
183 05/12/2023 13:21:49 81.36, 32.03 66.82 05/12/2023 13:21:48 81.36, 32.03 66.82 0.07 1
184 05/12/2023 14:12:30 -81.36,-160.75 113.21 05/12/2023 14:12:29 -81.36,-160.75 113.21 0.07 1
185 05/12/2023 15:03:11 81.36, 6.49 66.78 05/12/2023 15:03:10 81.36, 6.50 66.78 0.07 1
186 05/12/2023 15:53:51 -81.36, 174.11 113.20 05/12/2023 15:53:50 -81.36, 174.12 113.20 0.07 1
187 05/12/2023 16:44:32 81.36, -18.64 66.79 05/12/2023 16:44:31 81.36, -18.64 66.79 0.07 1
188 05/12/2023 17:35:13 -81.36, 148.58 113.24 05/12/2023 17:35:12 -81.36, 148.59 113.24 0.07 1
189 05/12/2023 18:25:54 81.36, -44.18 66.75 05/12/2023 18:25:53 81.36, -44.17 66.75 0.07 1
190 05/12/2023 19:16:34 -81.36, 123.45 113.23 05/12/2023 19:16:33 -81.36, 123.45 113.23 0.07 1
191 05/12/2023 20:07:15 81.36, -69.31 66.75 05/12/2023 20:07:14 81.36, -69.31 66.75 0.07 1
192 05/12/2023 20:57:56 -81.36, 97.92 113.27 05/12/2023 20:57:55 -81.36, 97.92 113.27 0.07 1
193 05/12/2023 21:48:37 81.36, -94.85 66.71 05/12/2023 21:48:36 81.36, -94.84 66.71 0.07 1
194 05/12/2023 22:39:17 -81.36, 72.78 113.26 05/12/2023 22:39:16 -81.36, 72.78 113.26 0.07 1
195 05/12/2023 23:29:58 81.36,-119.98 66.72 05/12/2023 23:29:57 81.36,-119.98 66.72 0.07 1
196 05/13/2023 00:20:39 -81.36, 47.25 113.31 05/13/2023 00:20:38 -81.36, 47.25 113.31 0.07 1
197 05/13/2023 01:11:20 81.36,-145.51 66.68 05/13/2023 01:11:19 81.36,-145.51 66.68 0.07 1
198 05/13/2023 02:02:00 -81.36, 22.11 113.30 05/13/2023 02:01:59 -81.36, 22.12 113.30 0.07 1
199 05/13/2023 02:52:41 81.36,-170.65 66.69 05/13/2023 02:52:40 81.36,-170.65 66.69 0.07 1
200 05/13/2023 03:43:22 -81.36, -3.42 113.34 05/13/2023 03:43:21 -81.36, -3.41 113.34 0.07 1
201 05/13/2023 04:34:03 81.36, 163.82 66.65 05/13/2023 04:34:02 81.36, 163.82 66.65 0.07 1
202 05/13/2023 05:24:43 -81.36, -28.56 113.33 05/13/2023 05:24:42 -81.36, -28.55 113.33 0.07 1
203 05/13/2023 06:15:24 81.36, 138.68 66.65 05/13/2023 06:15:23 81.36, 138.68 66.65 0.07 1
204 05/13/2023 07:06:05 -81.36, -54.09 113.37 05/13/2023 07:06:04 -81.36, -54.08 113.37 0.07 1
205 05/13/2023 07:56:46 81.36, 113.15 66.61 05/13/2023 07:56:45 81.36, 113.15 66.61 0.07 1
206 05/13/2023 08:47:26 -81.36, -79.22 113.36 05/13/2023 08:47:25 -81.36, -79.22 113.36 0.07 1
207 05/13/2023 09:38:07 81.36, 88.01 66.62 05/13/2023 09:38:06 81.36, 88.01 66.62 0.07 1
208 05/13/2023 10:28:48 -81.36,-104.76 113.41 05/13/2023 10:28:47 -81.36,-104.75 113.41 0.07 1
209 05/13/2023 11:19:29 81.36, 62.48 66.58 05/13/2023 11:19:28 81.36, 62.48 66.58 0.07 1
210 05/13/2023 12:10:09 -81.36,-129.89 113.40 05/13/2023 12:10:08 -81.36,-129.89 113.40 0.07 1
211 05/13/2023 13:00:50 81.36, 37.34 66.59 05/13/2023 13:00:49 81.36, 37.34 66.59 0.07 1
212 05/13/2023 13:51:31 -81.36,-155.42 113.44 05/13/2023 13:51:30 -81.36,-155.42 113.44 0.07 1
213 05/13/2023 14:42:12 81.36, 11.81 66.55 05/13/2023 14:42:11 81.36, 11.81 66.55 0.07 1
214 05/13/2023 15:32:53 -81.36, 179.04 113.48 05/13/2023 15:32:52 -81.36, 179.05 113.48 0.07 1
215 05/13/2023 16:23:33 81.36, -13.33 66.55 05/13/2023 16:23:32 81.36, -13.33 66.55 0.07 1
216 05/13/2023 17:14:14 -81.36, 153.91 113.47 05/13/2023 17:14:13 -81.36, 153.91 113.47 0.07 1
217 05/13/2023 18:04:55 81.36, -38.86 66.51 05/13/2023 18:04:54 81.36, -38.86 66.51 0.07 1
218 05/13/2023 18:55:36 -81.36, 128.38 113.51 05/13/2023 18:55:35 -81.36, 128.38 113.51 0.07 1
219 05/13/2023 19:46:16 81.36, -64.00 66.52 05/13/2023 19:46:15 81.36, -64.00 66.52 0.07 1
220 05/13/2023 20:36:57 -81.36, 103.24 113.50 05/13/2023 20:36:56 -81.36, 103.24 113.50 0.07 1
221 05/13/2023 21:27:38 81.36, -89.54 66.48 05/13/2023 21:27:37 81.36, -89.53 66.48 0.07 1
222 05/13/2023 22:18:19 -81.36, 77.71 113.55 05/13/2023 22:18:18 -81.36, 77.71 113.55 0.07 1
223 05/13/2023 23:08:59 81.36,-114.67 66.49 05/13/2023 23:08:58 81.36,-114.67 66.49 0.07 1
224 05/13/2023 23:59:40 -81.36, 52.57 113.54 05/13/2023 23:59:39 -81.36, 52.57 113.54 0.07 1
225 05/14/2023 00:50:21 81.36,-140.21 66.45 05/14/2023 00:50:20 81.36,-140.20 66.45 0.07 1
226 05/14/2023 01:41:02 -81.36, 27.04 113.58 05/14/2023 01:41:01 -81.36, 27.04 113.58 0.07 1
227 05/14/2023 02:31:42 81.36,-165.34 66.45 05/14/2023 02:31:41 81.36,-165.34 66.45 0.07 1
228 05/14/2023 03:22:22 -81.36, 1.90 113.57 05/14/2023 03:22:21 -81.36, 1.90 113.57 0.07 1
229 05/14/2023 04:13:03 81.36, 169.12 66.41 05/14/2023 04:13:02 81.36, 169.13 66.41 0.07 1
230 05/14/2023 05:03:44 -81.36, -23.63 113.61 05/14/2023 05:03:43 -81.36, -23.63 113.61 0.07 1
231 05/14/2023 05:54:24 81.36, 143.99 66.42 05/14/2023 05:54:23 81.36, 143.99 66.42 0.07 1
232 05/14/2023 06:45:05 -81.36, -48.77 113.60 05/14/2023 06:45:04 -81.36, -48.77 113.60 0.07 1
233 05/14/2023 07:35:46 81.36, 118.45 66.38 05/14/2023 07:35:45 81.36, 118.46 66.38 0.07 1
234 05/14/2023 08:26:27 -81.36, -74.30 113.64 05/14/2023 08:26:26 -81.36, -74.30 113.64 0.07 1
235 05/14/2023 09:17:07 81.36, 93.31 66.39 05/14/2023 09:17:06 81.36, 93.32 66.39 0.07 1
236 05/14/2023 10:07:48 -81.36, -99.44 113.64 05/14/2023 10:07:47 -81.36, -99.44 113.64 0.07 1
237 05/14/2023 10:58:29 81.36, 67.78 66.35 05/14/2023 10:58:28 81.36, 67.78 66.35 0.07 1
238 05/14/2023 11:49:10 -81.36,-124.97 113.68 05/14/2023 11:49:09 -81.36,-124.97 113.68 0.07 1
239 05/14/2023 12:39:50 81.36, 42.64 66.36 05/14/2023 12:39:49 81.36, 42.65 66.36 0.07 1
240 05/14/2023 13:30:31 -81.36,-150.11 113.67 05/14/2023 13:30:30 -81.36,-150.11 113.67 0.07 1
241 05/14/2023 14:21:12 81.36, 17.11 66.31 05/14/2023 14:21:11 81.36, 17.11 66.31 0.07 1
242 05/14/2023 15:11:53 -81.36,-175.64 113.71 05/14/2023 15:11:52 -81.36,-175.64 113.71 0.07 1
243 05/14/2023 16:02:33 81.36, -8.03 66.32 05/14/2023 16:02:32 81.36, -8.03 66.32 0.07 1
244 05/14/2023 16:53:14 -81.36, 159.22 113.70 05/14/2023 16:53:13 -81.36, 159.22 113.70 0.07 1
245 05/14/2023 17:43:55 81.36, -33.56 66.28 05/14/2023 17:43:54 81.36, -33.56 66.28 0.07 1
246 05/14/2023 18:34:36 -81.36, 133.69 113.74 05/14/2023 18:34:35 -81.36, 133.69 113.74 0.07 1
247 05/14/2023 19:25:16 81.36, -58.70 66.29 05/14/2023 19:25:15 81.36, -58.70 66.29 0.07 1
248 05/14/2023 20:15:57 -81.36, 108.55 113.73 05/14/2023 20:15:56 -81.36, 108.55 113.73 0.07 1
249 05/14/2023 21:06:38 81.36, -84.24 66.25 05/14/2023 21:06:37 81.36, -84.23 66.25 0.07 1
250 05/14/2023 21:57:19 -81.36, 83.01 113.77 05/14/2023 21:57:18 -81.36, 83.02 113.77 0.07 1
251 05/14/2023 22:47:59 81.36,-109.38 66.26 05/14/2023 22:47:58 81.36,-109.37 66.26 0.07 1
252 05/14/2023 23:38:40 -81.36, 57.88 113.77 05/14/2023 23:38:39 -81.36, 57.88 113.77 0.07 1
253 05/15/2023 00:29:21 81.36,-134.91 66.22 05/15/2023 00:29:20 81.36,-134.91 66.22 0.07 1
254 05/15/2023 01:20:02 -81.36, 32.34 113.81 05/15/2023 01:20:01 -81.36, 32.35 113.81 0.07 1
255 05/15/2023 02:10:42 81.36,-160.05 66.23 05/15/2023 02:10:41 81.36,-160.04 66.23 0.07 1
256 05/15/2023 03:01:23 -81.36, 7.21 113.80 05/15/2023 03:01:22 -81.36, 7.21 113.80 0.07 1
257 05/15/2023 03:52:04 81.36, 174.42 66.18 05/15/2023 03:52:03 81.36, 174.42 66.18 0.07 1
258 05/15/2023 04:42:45 -81.36, -18.33 113.84 05/15/2023 04:42:44 -81.36, -18.32 113.84 0.07 1
259 05/15/2023 05:33:25 81.36, 149.28 66.19 05/15/2023 05:33:24 81.36, 149.28 66.19 0.07 1
260 05/15/2023 06:24:06 -81.36, -43.47 113.83 05/15/2023 06:24:05 -81.36, -43.46 113.83 0.07 1
261 05/15/2023 07:14:47 81.36, 123.74 66.15 05/15/2023 07:14:46 81.36, 123.75 66.15 0.07 1
262 05/15/2023 08:05:28 -81.36, -69.00 113.87 05/15/2023 08:05:27 -81.36, -69.00 113.87 0.07 1
263 05/15/2023 08:56:08 81.36, 98.61 66.16 05/15/2023 08:56:07 81.36, 98.61 66.16 0.07 1
264 05/15/2023 09:46:49 -81.36, -94.14 113.86 05/15/2023 09:46:48 -81.36, -94.13 113.86 0.07 1
265 05/15/2023 10:37:30 81.36, 73.07 66.12 05/15/2023 10:37:29 81.36, 73.07 66.12 0.07 1
266 05/15/2023 11:28:11 -81.36,-119.67 113.90 05/15/2023 11:28:10 -81.36,-119.67 113.90 0.07 1
267 05/15/2023 12:18:51 81.36, 47.93 66.13 05/15/2023 12:18:50 81.36, 47.94 66.13 0.07 1
268 05/15/2023 13:09:32 -81.36,-144.81 113.89 05/15/2023 13:09:31 -81.36,-144.81 113.89 0.07 1
269 05/15/2023 14:00:13 81.36, 22.40 66.09 05/15/2023 14:00:12 81.36, 22.40 66.09 0.07 1
270 05/15/2023 14:50:54 -81.36,-170.34 113.93 05/15/2023 14:50:53 -81.36,-170.34 113.93 0.07 1
271 05/15/2023 15:41:35 81.36, -3.14 66.05 05/15/2023 15:41:34 81.36, -3.14 66.05 0.07 1
272 05/15/2023 16:32:15 -81.36, 164.52 113.93 05/15/2023 16:32:14 -81.36, 164.52 113.93 0.07 1
273 05/15/2023 17:22:56 81.36, -28.28 66.05 05/15/2023 17:22:55 81.36, -28.27 66.05 0.07 1
274 05/15/2023 18:13:37 -81.36, 138.98 113.97 05/15/2023 18:13:36 -81.36, 138.99 113.97 0.07 1
275 05/15/2023 19:04:18 81.36, -53.81 66.01 05/15/2023 19:04:17 81.36, -53.81 66.01 0.07 1
276 05/15/2023 19:54:58 -81.36, 113.84 113.96 05/15/2023 19:54:57 -81.36, 113.85 113.96 0.07 1
277 05/15/2023 20:45:39 81.36, -78.95 66.02 05/15/2023 20:45:38 81.36, -78.95 66.02 0.07 1
278 05/15/2023 21:36:20 -81.36, 88.31 114.00 05/15/2023 21:36:19 -81.36, 88.31 114.00 0.07 1
279 05/15/2023 22:27:01 81.36,-104.49 65.98 05/15/2023 22:27:00 81.36,-104.48 65.98 0.07 1
280 05/15/2023 23:17:41 -81.36, 63.17 113.99 05/15/2023 23:17:40 -81.36, 63.18 113.99 0.07 1
281 05/16/2023 00:08:22 81.36,-129.63 65.99 05/16/2023 00:08:21 81.36,-129.62 65.99 0.07 1
282 05/16/2023 00:59:03 -81.36, 37.64 114.03 05/16/2023 00:59:02 -81.36, 37.64 114.03 0.07 1
283 05/16/2023 01:49:44 81.36,-155.16 65.95 05/16/2023 01:49:43 81.36,-155.16 65.95 0.07 1
284 05/16/2023 02:40:24 -81.36, 12.50 114.02 05/16/2023 02:40:23 -81.36, 12.50 114.02 0.07 1
285 05/16/2023 03:31:05 81.36, 179.70 65.96 05/16/2023 03:31:04 81.36, 179.70 65.96 0.07 1
286 05/16/2023 04:21:46 -81.36, -13.04 114.06 05/16/2023 04:21:45 -81.36, -13.03 114.06 0.07 1
287 05/16/2023 05:12:27 81.36, 154.16 65.92 05/16/2023 05:12:26 81.36, 154.17 65.92 0.07 1
288 05/16/2023 06:03:07 -81.36, -38.17 114.05 05/16/2023 06:03:06 -81.36, -38.17 114.05 0.07 1
289 05/16/2023 06:53:47 81.36, 129.02 65.93 05/16/2023 06:53:46 81.36, 129.03 65.93 0.07 1
290 05/16/2023 07:44:28 -81.36, -63.71 114.09 05/16/2023 07:44:27 -81.36, -63.71 114.09 0.07 1
291 05/16/2023 08:35:09 81.36, 103.49 65.89 05/16/2023 08:35:08 81.36, 103.49 65.89 0.07 1
292 05/16/2023 09:25:49 -81.36, -88.85 114.09 05/16/2023 09:25:48 -81.36, -88.84 114.09 0.07 1
293 05/16/2023 10:16:30 81.36, 78.35 65.89 05/16/2023 10:16:29 81.36, 78.35 65.89 0.07 1
294 05/16/2023 11:07:11 -81.36,-114.38 114.13 05/16/2023 11:07:10 -81.36,-114.38 114.13 0.07 1
295 05/16/2023 11:57:52 81.36, 52.81 65.85 05/16/2023 11:57:51 81.36, 52.82 65.85 0.07 1
296 05/16/2023 12:48:32 -81.36,-139.52 114.12 05/16/2023 12:48:31 -81.36,-139.52 114.12 0.07 1
297 05/16/2023 13:39:13 81.36, 27.67 65.86 05/16/2023 13:39:12 81.36, 27.68 65.86 0.07 1
298 05/16/2023 14:29:54 -81.36,-165.06 114.16 05/16/2023 14:29:53 -81.36,-165.05 114.16 0.07 1
299 05/16/2023 15:20:35 81.36, 2.14 65.82 05/16/2023 15:20:34 81.36, 2.14 65.82 0.07 1
300 05/16/2023 16:11:15 -81.36, 169.80 114.15 05/16/2023 16:11:14 -81.36, 169.81 114.15 0.07 1
301 05/16/2023 17:01:56 81.36, -23.00 65.83 05/16/2023 17:01:55 81.36, -23.00 65.83 0.07 1
302 05/16/2023 17:52:37 -81.36, 144.27 114.19 05/16/2023 17:52:36 -81.36, 144.27 114.19 0.07 1
303 05/16/2023 18:43:18 81.36, -48.54 65.79 05/16/2023 18:43:17 81.36, -48.54 65.79 0.07 1
304 05/16/2023 19:33:58 -81.36, 119.13 114.18 05/16/2023 19:33:57 -81.36, 119.13 114.18 0.07 1
305 05/16/2023 20:24:39 81.36, -73.68 65.80 05/16/2023 20:24:38 81.36, -73.68 65.80 0.07 1
306 05/16/2023 21:15:20 -81.36, 93.59 114.22 05/16/2023 21:15:19 -81.36, 93.60 114.22 0.07 1
307 05/16/2023 22:06:01 81.36, -99.22 65.76 05/16/2023 22:06:00 81.36, -99.21 65.76 0.07 1
308 05/16/2023 22:56:41 -81.36, 68.45 114.21 05/16/2023 22:56:40 -81.36, 68.46 114.21 0.07 1
309 05/16/2023 23:47:22 81.36,-124.36 65.77 05/16/2023 23:47:21 81.36,-124.35 65.77 0.07 1
310 05/17/2023 00:38:03 -81.36, 42.92 114.25 05/17/2023 00:38:02 -81.36, 42.92 114.25 0.07 1
311 05/17/2023 01:28:44 81.36,-149.89 65.73 05/17/2023 01:28:43 81.36,-149.89 65.73 0.07 1
312 05/17/2023 02:19:24 -81.36, 17.78 114.24 05/17/2023 02:19:23 -81.36, 17.78 114.24 0.07 1
313 05/17/2023 03:10:05 81.36,-175.03 65.74 05/17/2023 03:10:04 81.36,-175.03 65.74 0.07 1
314 05/17/2023 04:00:46 -81.36, -7.76 114.28 05/17/2023 04:00:45 -81.36, -7.75 114.28 0.07 1
315 05/17/2023 04:51:27 81.36, 159.43 65.70 05/17/2023 04:51:26 81.36, 159.43 65.70 0.07 1
316 05/17/2023 05:42:07 -81.36, -32.90 114.27 05/17/2023 05:42:06 -81.36, -32.89 114.27 0.07 1
317 05/17/2023 06:32:48 81.36, 134.29 65.70 05/17/2023 06:32:47 81.36, 134.29 65.70 0.07 1
318 05/17/2023 07:23:29 -81.36, -58.43 114.31 05/17/2023 07:23:28 -81.36, -58.43 114.31 0.07 1
319 05/17/2023 08:14:10 81.36, 108.75 65.66 05/17/2023 08:14:09 81.36, 108.76 65.66 0.07 1
320 05/17/2023 09:04:50 -81.36, -83.57 114.31 05/17/2023 09:04:49 -81.36, -83.57 114.31 0.07 1
321 05/17/2023 09:55:31 81.36, 83.61 65.67 05/17/2023 09:55:30 81.36, 83.62 65.67 0.07 1
322 05/17/2023 10:46:12 -81.36,-109.11 114.35 05/17/2023 10:46:11 -81.36,-109.10 114.35 0.07 1
323 05/17/2023 11:36:53 81.36, 58.08 65.63 05/17/2023 11:36:52 81.36, 58.08 65.63 0.07 1
324 05/17/2023 12:27:33 -81.36,-134.25 114.34 05/17/2023 12:27:32 -81.36,-134.24 114.34 0.07 1
325 05/17/2023 13:18:14 81.36, 32.94 65.64 05/17/2023 13:18:13 81.36, 32.94 65.64 0.07 1
326 05/17/2023 14:08:55 -81.36,-159.78 114.38 05/17/2023 14:08:54 -81.36,-159.78 114.38 0.07 1
327 05/17/2023 14:59:36 81.36, 7.40 65.60 05/17/2023 14:59:35 81.36, 7.40 65.60 0.07 1
328 05/17/2023 15:50:17 -81.36, 174.68 114.42 05/17/2023 15:50:16 -81.36, 174.69 114.42 0.07 1
329 05/17/2023 16:40:57 81.36, -17.74 65.61 05/17/2023 16:40:56 81.36, -17.74 65.61 0.07 1
330 05/17/2023 17:31:38 -81.36, 149.54 114.41 05/17/2023 17:31:37 -81.36, 149.55 114.41
